Location: Creola (historical)
(38.1334°N, 100.5024°W)
Time: 00:47:03
(UTC+00:00)

Cosmos 1346 Rocket - Pass Details

Date: 18 October 2021
Orbit: 529 x 547 km, 81.2° (Epoch: 28 November)

Event Time Altitude Azimuth Distance (km) Brightness Sun altitude
Rises 12:11:56 0° 203° (SSW) 2,694 6.2 -9.0°
Reaches altitude 10° 12:14:09 10° 210° (SSW) 1,808 5.2 -8.6°
Maximum altitude 12:17:57 42° 282° (WNW) 783 3.2 -7.8°
Drops below altitude 10° 12:21:48 10° 355° (N) 1,826 5.4 -7.1°
Sets 12:24:04 0° 2° (N) 2,723 6.3 -6.6°
